Location: �clusier
(49.9361°N, 2.7869°E)
Time: 20:01:16
(UTC+00:00)

Cosmos 1452 Rocket - Pass Details

Date: 25 October 2021
Orbit: 767 x 775 km, 74.1° (Epoch: 04 December)

Event Time Altitude Azimuth Distance (km) Brightness Sun altitude
Rises 05:00:40 0° 340° (NNW) 3,266 6.5 -14.5°
Reaches altitude 10° 05:03:17 10° 350° (N) 2,335 5.9 -14.0°
Maximum altitude 05:08:06 34° 55° (NE) 1,262 5.1 -13.3°
Drops below altitude 10° 05:12:53 10° 120° (ESE) 2,321 7.1 -12.5°
Sets 05:15:28 0° 129° (SE) 3,243 7.7 -12.1°
